• In Portugal
  • List of Countries
  • For 7 days
  • Water Temperature
  • Satellite Maps
  • Weather Map
  • Weather Widgets
  • user-avatar
    Login

    Hourly Weather Arwayheer

    Today, 15 December, Friday

    Time Temperature Precipitation Wind Pressure Humidity
    00:00 -22°C° 0 mm 4 mps 613 mmHg 47%
    01:00 -22°C° 0 mm 4 mps 613 mmHg 47%
    02:00 -22°C° 0 mm 4 mps 613 mmHg 47%
    03:00 -22°C° 0 mm 4 mps 613 mmHg 47%
    04:00 -21°C° 0 mm 3 mps 613 mmHg 47%
    05:00 -21°C° 0 mm 3 mps 613 mmHg 48%
    06:00 -21°C° 0 mm 3 mps 614 mmHg 49%
    07:00 -21°C° 0 mm 3 mps 614 mmHg 51%
    08:00 -22°C° 0 mm 4 mps 614 mmHg 49%
    09:00 -22°C° 0 mm 4 mps 615 mmHg 48%
    10:00 -21°C° 0 mm 5 mps 615 mmHg 46%
    11:00 -20°C° 0 mm 5 mps 615 mmHg 44%
    12:00 -21°C° 0 mm 6 mps 615 mmHg 42%
    13:00 -20°C° 0 mm 6 mps 616 mmHg 40%
    14:00 -19°C° 0 mm 5 mps 616 mmHg 42%
    15:00 -18°C° 0 mm 4 mps 616 mmHg 44%
    16:00 -17°C° 0 mm 3 mps 616 mmHg 45%
    17:00 -18°C° 0 mm 3 mps 616 mmHg 46%
    18:00 -17°C° 0 mm 2 mps 616 mmHg 47%
    19:00 -17°C° 0 mm 2 mps 616 mmHg 47%
    20:00 -17°C° 0 mm 2 mps 616 mmHg 47%
    21:00 -17°C° 0 mm 2 mps 616 mmHg 47%
    22:00 -17°C° 0 mm 2 mps 616 mmHg 46%
    23:00 -17°C° 0 mm 2 mps 616 mmHg 47%

    Tomorrow, 16 December, Saturday

    Time Temperature Precipitation Wind Pressure Humidity
    00:00 -17°C° 0 mm 2 mps 616 mmHg 47%
    01:00 -17°C° 0 mm 2 mps 616 mmHg 48%
    02:00 -18°C° 0 mm 2 mps 616 mmHg 48%
    03:00 -18°C° 0 mm 2 mps 615 mmHg 49%
    04:00 -18°C° 0 mm 2 mps 615 mmHg 49%
    05:00 -18°C° 0 mm 2 mps 615 mmHg 49%
    06:00 -18°C° 0 mm 2 mps 615 mmHg 48%
    07:00 -15°C° 0 mm 1 mps 614 mmHg 48%
    08:00 -15°C° 0 mm 1 mps 615 mmHg 45%
    09:00 -16°C° 0 mm 2 mps 615 mmHg 42%
    10:00 -15°C° 0 mm 2 mps 615 mmHg 39%
    11:00 -14°C° 0 mm 2 mps 615 mmHg 36%
    12:00 -13°C° 0 mm 2 mps 614 mmHg 34%
    13:00 -12°C° 0 mm 2 mps 614 mmHg 31%
    14:00 -12°C° 0 mm 2 mps 614 mmHg 32%
    15:00 -13°C° 0 mm 2 mps 613 mmHg 34%
    16:00 -13°C° 0 mm 2 mps 613 mmHg 35%
    17:00 -13°C° 0 mm 2 mps 613 mmHg 36%
    18:00 -13°C° 0 mm 2 mps 613 mmHg 38%
    19:00 -13°C° 0 mm 2 mps 613 mmHg 39%
    20:00 -13°C° 0 mm 2 mps 613 mmHg 40%
    21:00 -13°C° 0 mm 2 mps 612 mmHg 41%
    22:00 -14°C° 0 mm 3 mps 612 mmHg 42%
    23:00 -14°C° 0 mm 3 mps 612 mmHg 44%

    Day after tomorrow, 17 December, Sunday

    Time Temperature Precipitation Wind Pressure Humidity
    00:00 -14°C° 0 mm 3 mps 612 mmHg 45%
    01:00 -14°C° 0 mm 3 mps 612 mmHg 46%
    02:00 -14°C° 0 mm 3 mps 611 mmHg 47%
    03:00 -14°C° 0 mm 3 mps 611 mmHg 49%
    04:00 -14°C° 0 mm 3 mps 611 mmHg 51%
    05:00 -14°C° 0 mm 3 mps 611 mmHg 52%
    06:00 -14°C° 0 mm 3 mps 611 mmHg 53%
    07:00 -14°C° 0 mm 3 mps 611 mmHg 54%
    08:00 -14°C° 0 mm 3 mps 611 mmHg 52%
    09:00 -13°C° 0 mm 3 mps 612 mmHg 51%
    10:00 -12°C° 0 mm 3 mps 612 mmHg 49%
    11:00 -10°C° 0 mm 3 mps 612 mmHg 48%
    12:00 -10°C° 0 mm 3 mps 612 mmHg 47%
    13:00 -9°C° 0 mm 3 mps 612 mmHg 45%
    14:00 -9°C° 0 mm 3 mps 612 mmHg 49%
    15:00 -10°C° 0 mm 3 mps 612 mmHg 53%
    16:00 -10°C° 0 mm 3 mps 612 mmHg 57%
    17:00 -12°C° 0 mm 3 mps 612 mmHg 58%
    18:00 -13°C° 0 mm 3 mps 612 mmHg 59%
    19:00 -13°C° 0 mm 3 mps 613 mmHg 60%
    20:00 -13°C° 0 mm 3 mps 613 mmHg 60%
    21:00 -14°C° 0 mm 3 mps 613 mmHg 59%
    22:00 -14°C° 0 mm 3 mps 613 mmHg 58%
    23:00 -14°C° 0 mm 3 mps 613 mmHg 58%

    18 December, Monday

    Time Temperature Precipitation Wind Pressure Humidity
    00:00 -14°C° 0 mm 2 mps 613 mmHg 58%
    01:00 -14°C° 0 mm 2 mps 613 mmHg 58%
    02:00 -14°C° 0 mm 2 mps 613 mmHg 58%
    03:00 -14°C° 0 mm 2 mps 613 mmHg 58%
    04:00 -14°C° 0 mm 2 mps 613 mmHg 58%
    05:00 -14°C° 0 mm 2 mps 613 mmHg 59%
    06:00 -14°C° 0 mm 2 mps 613 mmHg 60%
    07:00 -15°C° 0 mm 2 mps 613 mmHg 61%
    08:00 -14°C° 0 mm 2 mps 614 mmHg 58%
    09:00 -13°C° 0 mm 2 mps 614 mmHg 55%
    10:00 -13°C° 0 mm 2 mps 615 mmHg 52%
    11:00 -10°C° 0 mm 1 mps 615 mmHg 49%
    12:00 -9°C° 0 mm 1 mps 614 mmHg 47%
    13:00 -8°C° 0 mm 1 mps 614 mmHg 44%
    14:00 -9°C° 0 mm 1 mps 614 mmHg 46%
    15:00 -9°C° 0 mm 1 mps 613 mmHg 48%
    16:00 -10°C° 0 mm 1 mps 613 mmHg 50%
    17:00 -10°C° 0 mm 1 mps 613 mmHg 51%
    18:00 -12°C° 0 mm 2 mps 613 mmHg 51%
    19:00 -13°C° 0 mm 2 mps 612 mmHg 52%
    20:00 -13°C° 0 mm 2 mps 612 mmHg 52%
    21:00 -13°C° 0 mm 2 mps 612 mmHg 53%
    22:00 -14°C° 0 mm 3 mps 612 mmHg 53%
    23:00 -14°C° 0 mm 3 mps 612 mmHg 53%

    19 December, Tuesday

    Time Temperature Precipitation Wind Pressure Humidity
    00:00 -14°C° 0 mm 3 mps 611 mmHg 53%
    01:00 -14°C° 0 mm 3 mps 611 mmHg 53%
    02:00 -14°C° 0 mm 3 mps 611 mmHg 53%
    03:00 -14°C° 0 mm 3 mps 611 mmHg 53%
    04:00 -14°C° 0 mm 3 mps 610 mmHg 53%
    05:00 -14°C° 0 mm 3 mps 610 mmHg 54%
    06:00 -14°C° 0 mm 3 mps 611 mmHg 54%
    07:00 -15°C° 0 mm 4 mps 611 mmHg 55%
    08:00 -14°C° 0 mm 4 mps 611 mmHg 53%
    09:00 -12°C° 0 mm 4 mps 611 mmHg 52%
    10:00 -13°C° 0 mm 5 mps 612 mmHg 50%
    11:00 -11°C° 0 mm 4 mps 612 mmHg 48%
    12:00 -10°C° 0 mm 4 mps 612 mmHg 47%
    13:00 -10°C° 0 mm 4 mps 612 mmHg 45%
    14:00 -10°C° 0 mm 4 mps 611 mmHg 47%
    15:00 -9°C° 0 mm 3 mps 611 mmHg 49%
    16:00 -10°C° 0 mm 3 mps 611 mmHg 51%
    17:00 -10°C° 0 mm 3 mps 611 mmHg 52%
    18:00 -10°C° 0 mm 3 mps 611 mmHg 52%
    19:00 -10°C° 0 mm 3 mps 611 mmHg 53%
    20:00 -10°C° 0 mm 3 mps 611 mmHg 53%
    21:00 -11°C° 0 mm 4 mps 611 mmHg 54%
    22:00 -11°C° 0 mm 4 mps 611 mmHg 54%
    23:00 -11°C° 0 mm 4 mps 611 mmHg 55%

    20 December, Wednesday

    Time Temperature Precipitation Wind Pressure Humidity
    00:00 -11°C° 0 mm 4 mps 611 mmHg 55%
    01:00 -11°C° 0 mm 4 mps 611 mmHg 55%
    02:00 -10°C° 0 mm 3 mps 611 mmHg 56%
    03:00 -10°C° 0 mm 3 mps 611 mmHg 56%
    04:00 -10°C° 0 mm 3 mps 611 mmHg 57%
    05:00 -10°C° 0 mm 3 mps 611 mmHg 57%
    06:00 -10°C° 0 mm 3 mps 611 mmHg 57%
    07:00 -10°C° 0 mm 3 mps 611 mmHg 57%
    08:00 -10°C° 0 mm 3 mps 611 mmHg 54%
    09:00 -9°C° 0 mm 3 mps 612 mmHg 51%
    10:00 -9°C° 0 mm 3 mps 612 mmHg 48%
    11:00 -7°C° 0 mm 2 mps 612 mmHg 45%
    12:00 -6°C° 0 mm 2 mps 612 mmHg 42%
    13:00 -5°C° 0 mm 2 mps 612 mmHg 39%
    14:00 -6°C° 0 mm 2 mps 611 mmHg 41%
    15:00 -7°C° 0 mm 2 mps 611 mmHg 43%
    16:00 -6°C° 0 mm 1 mps 611 mmHg 44%
    17:00 -7°C° 0 mm 1 mps 611 mmHg 45%
    18:00 -7°C° 0 mm 1 mps 611 mmHg 45%
    19:00 -8°C° 0 mm 1 mps 611 mmHg 46%
    20:00 -8°C° 0 mm 1 mps 610 mmHg 46%
    21:00 -8°C° 0 mm 1 mps 610 mmHg 46%
    22:00 -9°C° 0 mm 1 mps 610 mmHg 46%
    23:00 -9°C° 0 mm 1 mps 610 mmHg 47%
    Show more